Weather in Andriivka

Ukraine / Dnipropetrovsk Region     48°46′00″N   35°27′13″E
В апреле 2022 года жителям России запретили посещать сайт meteo.paraplan.net по решению Генеральной прокуратуры. Аудитория сайта уменьшилась в 10 раз. Владельцы сайта не видят смысла в поддержке погодного сервера в таких условиях. Сайт будет закрыт в октябре.
temp.,
°C
wind,
m/s
gust,
m/s
humid.,
%
clouds,
%
prec.,
mm/h
press.,
hPa
HPBL,
m
30 september, fri
fri3000:00+16se3460100 0.0 101450
03:00+16sse31072100 0.0 1014242
06:00+15se3980100 0.0 1014193
09:00+18s41071100 0.2 1016489
12:00+19sse5974100 0.4 1016468
15:00+25ssw68465 0.4 10151467
18:00+20s3466100 0.6 101546
21:00+19sse3107490 2.1 1016248
1 october, sat
sat100:00+17ssw49805 0.0 1017177
03:00+16ssw35875 0.0 101780
06:00+15ssw348968 0.0 101848
09:00+19ssw46736 0.0 1018291
12:00+24sw5851100 0.0 1017948
15:00+26sw6938100 0.0 10161689
18:00+22w3351100 0.0 101628
21:00+20wnw005991 0.0 101511
2 october, sun
sun200:00+18ese2263100 0.0 101412
03:00+18s3673100 0.1 1012123
06:00+17s41080100 0.0 1011240
09:00+20ssw51069100 0.0 1009552
12:00+18w1283100 0.7 1008220
15:00+17sse4986100 2.3 1006512
18:00+16s51391100 4.4 1003943
21:00+16w61195100 14.9 1001605
3 october, mon
mon300:00+14wnw61088100 0.6 1001552
03:00+12nw71083100 0.6 1003674
06:00+10wnw6987100 0.3 1004776
09:00+10w5986100 1.8 1006541
12:00+14w676199 0.1 10071389
15:00+12w5881100 0.3 1009700
18:00+11wsw4684100 0.3 1011453
21:00+11w368448 0.4 1013317
4 october, tue
tue400:00+10wsw37855 0.0 1014307
03:00+8wsw34945 0.0 101587
06:00+8sw34955 0.0 101692
09:00+11sw457635 0.0 1017368
12:00+14sw564995 0.0 10171444
15:00+16sw6845100 0.0 10171955
18:00+13wsw4862100 0.0 1018559
21:00+12ssw377139 0.0 1019368